Regional Weather Roundup
Issued by NWS

Home | Current Version | Previous Version | Graphics & Text | Print | Product List | Glossary On
Versions: 1 2 3 4 5 6 7 8 9 10 11 12 13 14 15 16 17 18 19 20 21 22 23 24 25 26 27 28 29 30 31 32 33 34 35 36 37 38 39 40 41 42 43 44 45 46 47 48 49 50
000
ASUS43 KIND 031609
RWRIN

WEATHER ROUNDUP FOR INDIANA
NATIONAL WEATHER SERVICE INDIANAPOLIS IN
1200 PM EDT SUN MAY 03 2015

NOTE: "FAIR" INDICATES FEW OR NO CLOUDS BELOW 12,000 FEET WITH NO
SIGNIFICANT WEATHER AND/OR OBSTRUCTIONS TO VISIBILITY.

* - STATION DOES NOT REPORT WEATHER SUCH AS PRECIPITATION OR FOG.

+ - STATION NOT QUALITY CONTROLLED BY THE NATIONAL WEATHER SERVICE.
    USE DATA WITH CAUTION...ESPECIALLY DEWPOINT AND RELATIVE
    HUMIDITY OBSERVATIONS.

INZ001>003-010>013-019-020-031700-
NORTHWEST INDIANA

CITY           SKY/WX    TMP DP  RH WIND       PRES   REMARKS
GARY /AIRPORT/ PTSUNNY   75 N/A N/A SW18        N/A
KNOX *+        SUNNY     75   3   6 SW18      30.02S
LA PORTE +     MOSUNNY   77  43  30 SW16G23   30.02F
MICHIGAN CITY+ MOSUNNY   77  34  20 S17G23    30.01S
MONTICELLO +   FAIR      73  50  43 S13G18    30.04F
VALPARAISO     PTSUNNY   76  42  29 S18G30    30.02S

$$

LMZ046-743>745-031700-
SOUTHERN LAKE MICHIGAN

STATION/POSITION TIME  TEMP    WIND        PRES    WAVE
                       AIR SEA DIR/SP/G            HT
                 (UTC) (F)     (DEG/KT/KT) (MB)    (FT)
BURNS HARBOR     1600   73     190/ 17/ 22 1016.3S
MICHIGAN CITY    1600   72     180/ 17/ 22   N/A
5NW MICH CITY    1600   63 50  220/ 10/ 14   N/A     1

$$

INZ004-005-014>016-021>024-031700-
NORTH CENTRAL INDIANA

CITY           SKY/WX    TMP DP  RH WIND       PRES   REMARKS
ELKHART        MOSUNNY   75  37  25 S10       30.03
GOSHEN         SUNNY     73  47  39 SW17G24   30.04F
LOGANSPORT +   PTSUNNY   72  43  35 SW13G23   30.07S
PERU/GRISSOM   MOSUNNY   71  50  47 S14       30.06S
ROCHESTER +    SUNNY     77  46  33 SW9G18    30.06S
SOUTH BEND     MOSUNNY   76  42  29 S14G24    30.03S
WARSAW +       SUNNY     72  46  40 SW9G16    30.06S

$$

INZ006>009-017-018-025>027-031700-
NORTHEAST INDIANA

CITY           SKY/WX    TMP DP  RH WIND       PRES   REMARKS
ANGOLA *+      SUNNY     73  66  78 SW13      30.06S
AUBURN +       SUNNY     73  41  31 SW8G17    30.08S
FORT WAYNE     MOSUNNY   74  46  36 SW16      30.08S
HUNTINGTON +   SUNNY     73  47  40 SW9       30.08S

$$

INZ028-029-035-036-043>045-051>053-031700-
WEST CENTRAL INDIANA

CITY           SKY/WX    TMP DP  RH WIND       PRES   REMARKS
CRAWFORDSVL +  FAIR      73  37  27 SW14G20   30.07F
GREENCASTLE +  SUNNY     72  43  35 SW8       30.09S
LAFAYETTE      MOSUNNY   72  45  37 SW13      30.05S
TERRE HAUTE    MOSUNNY   73  49  42 SW13      30.08S

$$

INZ030>032-037>040-046>048-054>057-064-065-031700-
CENTRAL INDIANA

CITY           SKY/WX    TMP DP  RH WIND       PRES   REMARKS
CP ATTERBURY + CLOUDY    70  48  46 S5        30.12S
FISHERS *+     PTSUNNY   70  52  52 SW9       30.10S
FRANKFORT +    FAIR      74  49  41 S15G22    30.09R
GREENWOOD *+   MOSUNNY   73  46  38 SW12G17   30.11S
INDIANAPOLIS   PTSUNNY   72  50  45 S10G21    30.08S
-EAGLE CREEK   MOSUNNY   71  48  43 S10       30.09S
MARION +       CLOUDY    69  45  42 SW12      30.10S
MT COMFORT *+  PTSUNNY   72  34  25 SW12      30.11S
SHELBYVILLE    CLOUDY    72  49  44 SW15      30.10S
ZIONSVILLE +   MOSUNNY   72  46  40 S15       30.10S

$$

INZ033-034-041-042-049-050-058-059-031700-
EAST CENTRAL INDIANA

CITY           SKY/WX    TMP DP  RH WIND       PRES   REMARKS
MUNCIE         PTSUNNY   71  47  42 SW10      30.10R

$$

INZ060-061-067>069-081>083-085>088-031700-
SOUTHWEST INDIANA

CITY           SKY/WX    TMP DP  RH WIND       PRES   REMARKS
EVANSVILLE     MOSUNNY   74  50  42 S10       30.11S
HUNTINGBURG *+ MOSUNNY   72  52  49 SW10      30.12S
WASHINGTON +   MOSUNNY   73  45  36 S12       30.10S

$$

INZ062-063-066-070>080-084-089>092-031700-
SOUTH CENTRAL AND SOUTHEAST INDIANA

CITY           SKY/WX    TMP DP  RH WIND       PRES   REMARKS
BEDFORD +      SUNNY     72  45  37 S8        30.12
BLOOMINGTON    SUNNY     74  47  38 SW14      30.10S
MADISON *+     MOSUNNY   72  45  37 S10       30.16S
NORTH VERNON + PTSUNNY   72  48  43 S10       30.13S
SEYMOUR +      MOSUNNY   73  52  46 S5        30.12S

$$




USA.gov is the U.S. government's official web portal to all federal, state and local government web resources and services.